EW1269 Weather Reports


time (UTC)temp
C
wind
direction
speed
KPH
gust
KPH
rain 1hr
cm
rain 24hr
cm
rain mn
cm
humidity
%
barometer
mb
20260505035406 18 347 1.6 6.4 0.00 0.00 0.00 65 1011.4
20260505034319 19 11 3.2 6.4 0.00 0.00 0.00 64 1011.2
20260505033332 19 340 6.4 12.9 0.00 0.00 0.00 63 1011.0
20260505032321 20 349 9.7 16.1 0.00 0.00 0.00 62 1011.0
20260505031332 20 332 6.4 12.9 0.00 0.00 0.00 61 1011.0
20260505030318 20 355 6.4 9.7 0.00 0.00 0.00 60 1010.9
20260505025334 20 5 4.8 9.7 0.00 0.00 0.00 61 1010.8
20260505024343 21 306 4.8 12.9 0.00 0.00 0.00 60 1010.9
20260505023320 21 342 6.4 16.1 0.00 0.00 0.00 59 1010.7
20260505022359 21 5 9.7 17.7 0.00 0.00 0.00 57 1010.7
20260505021343 22 345 9.7 17.7 0.00 0.00 0.00 53 1010.6
20260505020322 22 343 6.4 16.1 0.00 0.00 0.00 50 1010.5
20260505015406 23 317 9.7 17.7 0.00 0.00 0.00 51 1010.4
20260505014404 23 302 8.0 16.1 0.00 0.00 0.00 50 1010.3
20260505013339 24 305 8.0 14.5 0.00 0.00 0.00 49 1010.3
20260505012359 25 302 3.2 16.1 0.00 0.00 0.00 48 1010.2
20260505011335 25 319 4.8 14.5 0.00 0.00 0.00 46 1010.3
20260505010321 25 309 1.6 8.0 0.00 0.00 0.00 45 1010.3
20260505005318 25 308 4.8 16.1 0.00 0.00 0.00 43 1010.3
20260505004320 26 186 3.2 9.7 0.00 0.00 0.00 43 1010.3
20260505003340 26 207 3.2 11.3 0.00 0.00 0.00 42 1010.3
20260505002350 26 193 3.2 11.3 0.00 0.00 0.00 43 1010.3
20260505001319 26 194 4.8 11.3 0.00 0.00 0.00 43 1010.3
20260505000337 26 200 4.8 9.7 0.00 0.00 0.00 42 1010.4
20260504235341 26 176 8.0 14.5 0.00 0.00 0.00 42 1010.4
20260504234326 26 314 1.6 9.7 0.00 0.00 0.00 42 1010.4
20260504233327 26 196 1.6 11.3 0.00 0.00 0.00 42 1010.5
20260504232346 26 325 3.2 12.9 0.00 0.00 0.00 44 1010.4
20260504231403 26 161 9.7 14.5 0.00 0.00 0.00 42 1010.5
20260504230352 26 171 8.0 14.5 0.00 0.00 0.00 44 1010.5
20260504225319 26 13 3.2 12.9 0.00 0.00 0.00 44 1010.5
20260504224345 26 188 8.0 14.5 0.00 0.00 0.00 44 1010.7
20260504223324 26 184 3.2 14.5 0.00 0.00 0.00 44 1010.8
20260504222341 26 177 4.8 12.9 0.00 0.00 0.00 44 1010.8
20260504221318 26 186 9.7 19.3 0.00 0.00 0.00 43 1010.9
20260504220331 27 335 1.6 12.9 0.00 0.00 0.00 44 1011.0
20260504215319 26 177 11.3 17.7 0.00 0.00 0.00 44 1011.1
20260504214317 26 218 6.4 12.9 0.00 0.00 0.00 46 1011.2
20260504213357 26 215 9.7 16.1 0.00 0.00 0.00 46 1011.3
20260504212346 27 174 3.2 9.7 0.00 0.00 0.00 44 1011.3
20260504211403 26 214 526.3 526.3 0.00 0.00 0.00 43 1011.3
20260504210329 26 312 6.4 16.1 0.00 0.00 0.00 41 1011.4
20260504204317 26 171 0.0 14.5 0.00 0.00 0.00 44 1011.4
20260504203334 25 198 6.4 14.5 0.00 0.00 0.00 47 1011.5
20260504202342 25 202 4.8 9.7 0.00 0.00 0.00 46 1011.6
20260504201350 25 200 6.4 12.9 0.00 0.00 0.00 46 1011.5
20260504200339 24 210 6.4 12.9 0.00 0.00 0.00 50 1011.6
20260504195326 24 155 6.4 12.9 0.00 0.00 0.00 48 1011.6
20260504194324 24 172 8.0 14.5 0.00 0.00 0.00 47 1011.6
20260504193324 24 119 3.2 11.3 0.00 0.00 0.00 50 1011.6
20260504192351 23 187 8.0 16.1 0.00 0.00 0.00 50 1011.5
20260504191341 23 177 4.8 12.9 0.00 0.00 0.00 52 1011.6
20260504190359 23 157 4.8 12.9 0.00 0.00 0.00 51 1011.7
20260504185346 24 321 4.8 9.7 0.00 0.00 0.00 51 1011.8
20260504184318 23 219 3.2 12.9 0.00 0.00 0.00 52 1011.9
20260504183355 23 209 3.2 11.3 0.00 0.00 0.00 50 1011.9
20260504182344 23 173 8.0 12.9 0.00 0.00 0.00 52 1011.9
20260504181335 23 180 3.2 11.3 0.00 0.00 0.00 52 1012.0
20260504180321 22 123 6.4 11.3 0.00 0.00 0.00 58 1011.9
20260504175318 22 173 8.0 12.9 0.00 0.00 0.00 56 1011.9
20260504174336 22 141 3.2 12.9 0.00 0.00 0.00 58 1011.9
20260504173356 22 205 4.8 14.5 0.00 0.00 0.00 59 1011.8
20260504172342 21 180 3.2 12.9 0.00 0.00 0.00 58 1011.8
20260504171337 21 201 4.8 8.0 0.00 0.00 0.00 59 1012.0
20260504170344 21 169 3.2 8.0 0.00 0.00 0.00 59 1012.0
20260504160325 17 172 3.2 4.8 0.00 0.00 0.00 73 1012.0
20260504150341 15 87 0.0 1.6 0.00 0.00 0.00 80 1011.9
20260504140338 10 318 0.0 0.0 0.00 0.00 0.00 95 1011.3
20260504130314 8 318 0.0 0.0 0.00 0.00 0.00 94 1011.0
20260504120315 8 318 0.0 0.0 0.00 0.00 0.00 93 1010.7
20260504110334 9 318 0.0 0.0 0.00 0.00 0.00 92 1010.7
20260504100331 10 318 0.0 0.0 0.00 0.00 0.00 91 1010.9
20260504081327 11 318 0.0 0.0 0.00 0.00 0.00 90 1011.0
20260504080315 11 318 0.0 0.0 0.00 0.00 0.00 89 1011.0
20260504070334 12 318 0.0 0.0 0.00 0.00 0.00 86 1010.9
20260504050332 15 318 0.0 0.0 0.00 0.00 0.00 77 1010.6
20260504045321 15 318 0.0 0.0 0.00 0.00 0.00 76 1010.8
20260504044320 16 318 0.0 0.0 0.00 0.00 0.00 74 1010.7
20260504043322 16 318 0.0 0.0 0.00 0.00 0.00 72 1010.7
20260504042318 17 318 0.0 0.0 0.00 0.00 0.00 70 1010.7
20260504041318 17 318 0.0 0.0 0.00 0.00 0.00 68 1010.7
20260504040337 18 318 0.0 0.0 0.00 0.00 0.00 66 1010.6